FW7282 Weather Reports


Display with metric or nautical units.
time (UTC)temp
F
wind
direction
speed
MPH
gust
MPH
rain 1hr
in
rain 24hr
in
rain mn
in
humidity
%
barometer
mb
20210412003617 68 0.0 0.0 0.00 0.00 0.00 54 1002.0
20210412003233 68 0.0 0.0 0.00 0.00 0.00 53 1002.0
20210412001616 69 0.0 0.0 0.00 0.00 0.00 52 1002.0
20210412000653 70 0.0 0.0 0.00 0.00 0.00 51 1001.9
20210411235914 71 0.0 0.0 0.00 0.00 0.00 50 1001.8
20210411234618 72 0.0 0.0 0.00 0.00 0.00 49 1001.6
20210411233540 72 0.0 0.0 0.00 0.00 0.00 47 1001.7
20210411232958 73 0.0 0.0 0.00 0.00 0.00 45 1001.6
20210411231619 73 0.0 0.0 0.00 0.00 0.00 44 1001.6
20210411230539 74 0.0 0.0 0.00 0.00 0.00 44 1001.8
20210411225841 75 0.0 0.0 0.00 0.00 0.00 45 1001.7
20210411224523 75 0.0 0.0 0.00 0.00 0.00 45 1001.7
20210411223514 76 0.0 0.0 0.00 0.00 0.00 43 1001.6
20210411223026 76 0.0 0.0 0.00 0.00 0.00 46 1001.4
20210411221523 77 0.0 0.0 0.00 0.00 0.00 44 1001.3
20210411220619 77 0.0 0.0 0.00 0.00 0.00 44 1001.3
20210411215932 77 0.0 0.0 0.00 0.00 0.00 43 1001.4
20210411214442 77 0.0 0.0 0.00 0.00 0.00 43 1001.4
20210411213441 77 0.0 0.0 0.00 0.00 0.00 42 1001.5
20210411212912 78 0.0 0.0 0.00 0.00 0.00 44 1001.5
20210411211440 78 0.0 0.0 0.00 0.00 0.00 45 1001.5
20210411210414 78 0.0 0.0 0.00 0.00 0.00 46 1001.5
20210411205900 78 0.0 0.0 0.00 0.00 0.00 45 1001.5
20210411204418 78 0.0 0.0 0.00 0.00 0.00 42 1001.5
20210411203548 78 0.0 0.0 0.00 0.01 0.00 42 1001.5
20210411203033 78 0.0 0.0 0.00 0.06 0.00 44 1001.5
20210411201450 78 0.0 0.0 0.00 0.66 0.00 45 1001.7
20210411200424 78 0.0 0.0 0.00 0.69 0.00 45 1001.8
20210411195833 78 0.0 0.0 0.00 0.70 0.00 45 1001.9
20210411194344 78 0.0 0.0 0.00 0.72 0.00 45 1002.0
20210411193355 78 0.0 0.0 0.00 0.73 0.00 45 1002.1
20210411192905 78 0.0 0.0 0.00 0.73 0.00 47 1002.1
20210411191240 78 0.0 0.0 0.00 0.73 0.00 48 1002.2
20210411190319 78 0.0 0.0 0.00 0.73 0.00 49 1002.3
20210411185857 78 0.0 0.0 0.00 0.74 0.00 48 1002.3
20210411184314 77 0.0 0.0 0.00 0.75 0.00 47 1002.3
20210411183715 77 0.0 0.0 0.00 0.76 0.00 51 1002.4
20210411182956 77 0.0 0.0 0.00 0.76 0.00 52 1002.4
20210411181242 77 0.0 0.0 0.00 0.77 0.00 52 1002.5
20210411180256 77 0.0 0.0 0.00 0.78 0.00 51 1002.4
20210411175752 77 0.0 0.0 0.00 0.80 0.00 54 1002.4
20210411174315 76 0.0 0.0 0.00 0.80 0.00 53 1002.5
20210411173301 77 0.0 0.0 0.00 0.80 0.00 55 1002.6
20210411172859 77 0.0 0.0 0.00 0.80 0.00 53 1002.8
20210411171225 77 0.0 0.0 0.00 0.81 0.00 55 1002.9
20210411170140 77 0.0 0.0 0.00 0.81 0.00 56 1003.0
20210411165714 77 0.0 0.0 0.00 0.86 0.00 56 1003.5
20210411164221 76 0.0 0.0 0.00 0.86 0.00 59 1003.7
20210411163242 76 0.0 0.0 0.00 0.86 0.00 59 1003.8
20210411162828 75 0.0 0.0 0.00 0.87 0.00 61 1004.0
20210411161140 75 0.0 0.0 0.00 0.87 0.00 63 1004.1
20210411160143 74 0.0 0.0 0.00 0.90 0.00 63 1004.1
20210411155642 74 0.0 0.0 0.00 0.93 0.00 65 1004.5
20210411154140 73 0.0 0.0 0.00 0.95 0.00 70 1004.8
20210411153126 72 0.0 0.0 0.00 0.95 0.00 71 1004.8
20210411152512 71 0.0 0.0 0.00 0.95 0.00 72 1004.9
20210411151113 71 0.0 0.0 0.00 0.95 0.00 74 1004.9
20210411150138 70 0.0 0.0 0.00 0.95 0.00 76 1004.8
20210411145713 69 0.0 0.0 0.00 0.95 0.00 80 1004.7
20210411144123 68 0.0 0.0 0.00 0.95 0.00 79 1004.7
20210411143115 67 0.0 0.0 0.00 0.95 0.00 85 1004.7
20210411142238 66 0.0 0.0 0.00 0.95 0.00 86 1004.7
20210411141047 65 0.0 0.0 0.00 0.95 0.00 89 1004.7
20210411140102 65 0.0 0.0 0.00 0.95 0.00 93 1004.2
20210411135539 64 0.0 0.0 0.00 0.95 0.00 95 1004.0
20210411134100 63 0.0 0.0 0.00 0.95 0.00 96 1004.0
20210411133025 62 0.0 0.0 0.00 0.95 0.00 97 1004.4
20210411132231 62 0.0 0.0 0.00 0.95 0.00 97 1004.2
20210411131027 62 0.0 0.0 0.00 0.95 0.00 98 1003.8
20210411130057 61 0.0 0.0 0.00 0.95 0.00 99 1003.7
20210411125401 61 0.0 0.0 0.00 0.95 0.00 99 1003.6
20210411124023 60 0.0 0.0 0.00 0.95 0.00 99 1003.6
20210411122917 60 0.0 0.0 0.00 0.95 0.00 99 1003.7
20210411122050 59 0.0 0.0 0.00 0.95 0.00 99 1003.5
20210411120844 59 0.0 0.0 0.00 0.95 0.00 99 1003.4
20210411120053 59 0.0 0.0 0.00 0.95 0.00 99 1003.5
20210411115436 59 0.0 0.0 0.00 0.95 0.00 99 1003.4
20210411113944 59 0.0 0.0 0.00 0.95 0.00 98 1003.5
20210411112922 59 0.0 0.0 0.00 0.95 0.00 98 1003.4
20210411111949 58 0.0 0.0 0.00 0.95 0.00 98 1003.4
20210411110914 58 0.0 0.0 0.00 0.95 0.00 98 1003.4
20210411105918 58 0.0 0.0 0.00 0.95 0.00 98 1003.3
20210411105058 58 0.0 0.0 0.00 0.95 0.00 98 1003.2
20210411103836 58 0.0 0.0 0.00 0.95 0.00 98 1003.0
20210411102915 58 0.0 0.0 0.00 0.95 0.00 98 1003.0
20210411101848 58 0.0 0.0 0.00 0.95 0.00 98 1003.1
20210411100738 57 0.0 0.0 0.00 0.95 0.00 98 1003.1
20210411095831 57 0.0 0.0 0.00 0.95 0.00 97 1003.2
20210411094756 57 0.0 0.0 0.00 0.95 0.00 97 1003.1
20210411093741 57 0.0 0.0 0.00 0.95 0.00 97 1003.1
20210411092826 58 0.0 0.0 0.00 0.95 0.00 97 1003.1
20210411091719 58 0.0 0.0 0.00 0.95 0.00 97 1003.1
20210411090718 58 0.0 0.0 0.00 0.95 0.00 97 1003.1
20210411090025 58 0.0 0.0 0.00 0.95 0.00 97 1003.1
20210411084744 58 0.0 0.0 0.00 0.95 0.00 97 1003.2
20210411083721 58 0.0 0.0 0.00 0.95 0.00 98 1003.2
20210411082922 58 0.0 0.0 0.00 0.95 0.00 97 1003.2
20210411081701 58 0.0 0.0 0.00 0.94 0.00 97 1003.2
20210411080743 58 0.0 0.0 0.00 0.94 0.00 97 1003.1
20210411075902 58 0.0 0.0 0.00 0.94 0.00 97 1003.2
20210411074716 58 0.0 0.0 0.00 0.94 0.00 97 1003.2
20210411073741 58 0.0 0.0 0.00 0.94 0.00 97 1003.1
20210411072823 58 0.0 0.0 0.00 0.94 0.00 97 1003.1
20210411071620 58 0.0 0.0 0.00 0.94 0.00 97 1003.0
20210411070625 58 0.0 0.0 0.00 0.94 0.00 97 1003.1
20210411065028 58 0.0 0.0 0.00 0.94 0.00 96 1003.1
20210411063717 58 0.0 0.0 0.00 0.94 0.00 97 1003.2
20210411063038 58 0.0 0.0 0.00 0.94 0.00 97 1003.1
20210411061645 58 0.0 0.0 0.00 0.94 0.00 96 1003.2
20210411060616 59 0.0 0.0 0.00 0.94 0.00 96 1003.2
20210411054654 59 0.0 0.0 0.00 0.94 0.00 96 1003.3
20210411053652 59 0.0 0.0 0.00 0.94 0.00 96 1003.4
20210411051654 59 0.0 0.0 0.00 0.94 0.00 96 1003.4
20210411050551 59 0.0 0.0 0.00 0.94 0.00 96 1003.3
20210411044532 59 0.0 0.0 0.00 0.94 0.00 96 1003.3
20210411043637 59 0.0 0.0 0.00 0.94 0.00 96 1003.4
20210411043102 59 0.0 0.0 0.00 0.94 0.00 96 1003.4
20210411041652 59 0.0 0.0 0.00 0.94 0.00 95 1003.5
20210411040538 60 0.0 0.0 0.00 0.94 0.00 95 1003.5
20210411040454 60 0.0 0.0 0.00 0.94 0.94 95 1003.5
20210411034549 60 0.0 0.0 0.00 0.94 0.94 95 1003.4
20210411033620 60 0.0 0.0 0.00 0.94 0.94 95 1003.4
20210411033102 60 0.0 0.0 0.00 0.94 0.94 94 1003.6
20210411031617 60 0.0 0.0 0.00 0.94 0.94 94 1003.6
20210411030438 60 0.0 0.0 0.00 0.94 0.94 93 1003.5
20210411030020 60 0.0 0.0 0.00 0.94 0.94 93 1003.7
20210411024521 60 0.0 0.0 0.00 0.94 0.94 93 1003.7
20210411023518 61 0.0 0.0 0.00 0.94 0.94 92 1003.6
20210411022821 61 0.0 0.0 0.00 0.94 0.94 92 1003.7
20210411021531 61 0.0 0.0 0.00 0.94 0.94 92 1003.7
20210411020208 62 0.0 0.0 0.00 0.94 0.94 92 1003.6
20210411014443 62 0.0 0.0 0.00 0.94 0.94 91 1003.6
20210411013439 63 0.0 0.0 0.00 0.94 0.94 91 1003.7
20210411012829 63 0.0 0.0 0.00 0.94 0.94 91 1003.4
20210411011416 64 0.0 0.0 0.00 0.94 0.94 91 1003.1
20210411010430 64 0.0 0.0 0.00 0.94 0.94 90 1003.1
20210411010145 65 0.0 0.0 0.00 0.94 0.94 91 1003.1
20210411004429 65 0.0 0.0 0.00 0.94 0.94 90 1003.1